Location: ???????
(55.3754°N, 39.3545°E)
Time: 06:49:08
(UTC+00:00)

Cosmos 1898 Rocket - Pass Details

Date: 14 April 2026
Orbit: 750 x 778 km, 74.0° (Epoch: 13 May)

Event Time Altitude Azimuth Distance (km) Brightness Sun altitude
Rises 17:06:38 0° 208° (SSW) 3,224 6.8 -6.2°
Reaches altitude 10° 17:09:00 10° 209° (SSW) 2,298 6.0 -6.5°
Maximum altitude 17:14:14 84° 297° (WNW) 772 3.6 -7.2°
Drops below altitude 10° 17:19:27 10° 27° (NNE) 2,295 6.0 -7.8°
Sets 17:21:50 0° 28° (NNE) 3,221 6.8 -8.1°
